GFSSGP_con_sbcape_021.txt.gz
CAPE
0 0 0 0 0 0 0 0 1 17 1 0 0 0 0 0 0 0 10 57 28 38 479 461 1005 842 673 481 312 222 152 65 0 0 0 0 0 0 0 0 0 0 0 0 0 0 0 0 0
0 0 0 0 0 0 3 0 51 24 38 0 0 0 2 0 0 0 21 82 46 38 675 204 1164 1029 925 737 564 470 357 145 41 3 0 0 0 0 0 0 0 0 0 0 0 1 7 10 0
0 0 0 0 0 0 86 29 31 63 0 0 0 0 0 0 0 0 78 92 62 39 645 360 1332 1121 1131 967 739 639 605 411 99 55 40 24 24 27 31 47 55 76 124 84 46 35 9 74 100
0 0 0 0 0 51 32 100 96 11 50 0 0 0 4 0 0 0 7 71 67 32 211 1201 1366 1331 1306 1173 974 891 804 573 345 159 157 146 117 163 152 134 198 359 449 437 285 188 133 258 286
0 0 0 0 0 0 19 0 100 126 68 39 11 0 2 5 0 0 10 67 81 63 55 1066 1625 1554 1522 1413 1200 1089 1029 904 762 364 311 273 469 537 539 512 728 683 660 601 515 453 479 349 284
0 0 0 0 0 0 0 0 0 1 39 35 5 4 7 3 0 0 9 67 78 67 62 432 1852 1734 1619 1551 1402 1318 1241 1194 1096 1023 860 824 1066 998 955 1067 878 852 679 566 485 447 507 399 342
0 0 0 0 0 5 2 0 0 0 11 21 8 0 4 51 36 2 25 70 136 122 116 154 2068 1823 1729 1705 1542 1549 1553 1571 1539 1407 1299 1436 1203 1418 1225 1015 732 429 202 170 162 203 285 413 290
0 0 0 3 1 0 17 0 0 0 19 10 0 0 6 35 7 0 5 27 70 153 131 226 968 2101 1642 1069 1805 1811 1811 1739 1720 1554 1471 1631 1292 1442 1081 623 274 115 53 30 13 79 156 246 541
0 0 0 0 1 0 7 14 7 7 0 0 0 1 0 0 0 8 0 8 56 77 190 293 245 1172 1622 911 1093 1903 1636 1561 1626 1339 1453 1542 790 260 689 618 271 108 58 15 10 6 13 81 113
0 0 0 1 13 16 14 12 19 15 25 0 0 0 1 23 0 14 0 0 22 84 141 258 500 889 1412 795 1227 1571 960 939 921 882 719 1162 648 585 557 597 98 88 84 47 34 45 78 120 20
0 0 0 12 49 47 37 20 26 32 43 39 0 0 0 0 15 24 0 0 11 23 117 267 1851 2085 1669 1024 800 1601 1123 984 1250 1115 1593 1171 601 654 733 722 693 504 273 341 203 188 147 78 22
3 0 4 3 52 44 49 38 16 45 34 22 0 0 0 0 4 12 0 5 10 56 71 180 801 2374 2674 1528 811 1121 1336 1292 1038 1123 1530 1179 808 1062 893 657 718 707 396 799 217 138 787 195 191
0 0 15 16 6 9 14 28 2 17 6 1 0 0 0 0 0 0 0 0 0 57 63 79 1226 2599 3100 3240 1275 1473 1628 979 1048 780 775 876 871 1090 771 851 674 672 345 285 839 567 389 690 399
0 1 1 1 7 7 13 8 11 4 6 0 0 0 0 0 0 0 0 0 0 149 126 171 1643 2835 2435 2679 3116 2416 2199 1050 726 547 514 1009 1038 1285 787 1174 757 844 545 407 389 413 533 622 433
0 14 8 1 0 3 25 0 0 0 1 0 0 0 0 0 0 0 0 20 2 97 549 1026 2125 2725 3032 3077 2913 2245 1300 871 621 533 742 785 1136 1193 1083 889 1096 1313 1703 958 914 579 705 204 178
0 15 12 0 0 3 34 0 0 0 0 0 1 0 0 0 0 0 0 13 231 296 797 818 598 1703 2986 3025 2638 1933 955 765 409 411 589 1055 1172 1183 1252 1080 1105 1601 1352 1330 1055 594 430 328 190
0 0 0 0 1 9 27 0 0 0 0 1 0 1 0 0 0 26 0 0 215 744 1203 840 1626 1253 2636 3000 2297 1947 1867 668 393 481 634 857 1072 1022 1499 1124 1310 1477 1213 837 844 759 466 454 258
0 0 0 0 0 12 7 0 0 0 0 0 0 7 0 0 0 8 7 0 38 170 517 1209 1540 2408 3115 2442 2257 1132 638 575 408 552 630 761 942 879 1588 1125 1441 1472 895 830 726 775 308 228 902
0 0 0 0 0 9 0 1 34 0 0 0 0 5 0 0 0 1 2 6 172 222 529 1129 1136 2533 2434 1859 1259 810 483 612 467 533 658 736 864 1364 1490 1382 1250 1292 964 657 562 592 454 653 672
0 0 0 0 0 18 12 16 9 2 3 0 0 0 0 0 0 0 0 382 300 475 728 808 963 1891 2170 1478 1326 723 718 432 453 492 730 823 878 1110 1137 1174 1274 1021 1144 988 482 852 875 1103 989
0 0 0 0 0 13 6 1 0 0 0 0 0 0 0 0 0 0 0 515 444 567 700 822 1045 1671 1749 1611 1188 654 550 506 613 346 529 923 872 1080 1046 1014 1176 1042 1303 1150 1035 849 696 971 1051
0 0 0 0 0 0 0 0 0 0 0 0 0 0 0 0 0 0 5 583 562 597 686 804 1161 1175 914 1429 1248 1488 688 371 279 570 356 734 755 660 837 791 782 802 1212 967 861 1061 722 1055 828
0 0 0 0 0 0 0 0 0 0 0 0 0 0 0 0 0 0 249 563 579 563 680 904 997 835 1035 878 1301 603 563 224 333 222 610 1024 875 798 587 617 685 920 1214 994 786 621 795 1154 1111
0 0 0 2 0 0 0 0 0 0 0 0 0 0 0 0 0 61 536 565 517 501 675 797 829 806 782 556 591 753 613 483 400 623 801 1010 1283 1001 823 500 731 801 930 874 752 813 709 882 1143
0 0 0 2 0 0 0 0 0 0 0 0 0 0 0 24 139 393 528 429 450 564 644 710 722 804 618 539 508 554 712 827 869 740 1024 860 789 1140 1043 606 748 798 889 1005 956 952 779 1077 1163
0 0 0 0 0 0 0 0 0 0 0 0 0 0 32 216 356 459 430 466 487 517 570 516 627 560 447 409 389 594 837 819 945 919 647 1327 680 1029 667 712 793 807 836 879 821 1589 1185 926 1052
0 0 0 0 1 0 3 4 0 0 0 0 0 0 91 371 493 489 479 485 484 512 510 594 538 428 369 249 552 634 852 620 885 697 517 876 749 521 541 622 728 605 615 805 810 1063 873 857 959
1 0 1 0 0 5 11 32 60 0 0 0 11 0 137 554 534 512 506 506 488 482 547 551 428 362 183 409 504 599 758 739 650 503 411 940 395 233 479 589 639 673 700 799 982 972 821 731 1002
0 1 0 0 0 10 20 36 13 11 0 1 46 113 468 604 505 524 459 456 482 482 500 536 338 153 218 393 392 1111 818 722 568 454 224 577 414 216 239 332 577 531 661 765 725 768 647 467 392
0 3 0 0 0 0 49 49 0 0 9 6 90 401 622 549 422 425 413 445 472 519 530 427 156 60 205 272 373 465 740 728 659 821 671 317 395 119 115 86 94 569 377 395 373 258 418 298 216

GFSSGP_con_sbcape_024.txt.gz
CAPE
0 0 0 0 0 0 0 0 0 97 18 0 0 0 0 0 0 1 17 20 288 591 194 300 784 624 427 255 179 114 85 75 35 0 0 0 0 0 0 0 0 0 0 0 0 0 0 0 0
0 0 0 0 0 0 0 0 21 2 1 0 0 0 0 0 0 27 17 67 251 773 335 157 881 721 581 378 250 232 221 161 111 63 0 0 0 0 0 0 0 0 0 0 0 0 6 2 3
0 0 0 0 0 0 1 9 0 28 13 0 0 0 0 0 0 2 69 85 275 1041 551 343 1038 862 816 675 529 471 429 350 261 94 27 9 0 0 0 0 12 31 77 107 87 59 35 15 133
0 0 0 0 0 0 4 36 17 35 11 0 0 0 0 0 0 0 6 29 38 413 768 1213 1085 1029 1050 908 768 702 628 536 430 240 184 153 106 180 250 78 61 107 275 380 437 355 322 307 496
0 0 0 0 0 0 0 1 0 46 72 21 5 0 0 0 0 0 6 35 63 27 594 1545 1200 1233 1244 1211 966 815 825 694 621 560 443 429 455 493 500 427 359 574 619 563 626 569 659 384 409
0 0 0 0 0 0 0 4 0 0 0 0 15 26 0 5 10 0 0 71 33 91 222 1924 1452 1347 1332 1370 1131 1004 890 852 865 781 780 767 786 778 779 1009 932 887 720 659 532 508 652 562 595
0 0 0 0 0 0 0 0 0 0 0 1 17 0 1 5 56 56 3 56 78 123 301 2062 1585 1423 1532 1476 1270 1128 1059 1046 1060 1009 1120 1093 1069 1191 1282 1235 1102 761 609 329 182 167 265 641 608
0 0 0 0 0 0 0 2 0 0 0 11 0 1 0 21 20 16 12 0 19 162 210 2180 1966 1535 1349 1291 1597 1416 1328 1282 1367 1394 1405 1320 1280 1259 1417 1469 1134 623 348 146 89 54 99 218 557
0 0 0 0 0 0 0 1 0 0 0 0 0 1 0 0 0 2 17 0 0 0 300 1602 2296 2188 1680 1264 1298 1678 1512 1619 1654 1497 1450 1465 839 444 922 1131 1116 753 551 335 171 43 43 61 139
0 0 0 0 0 0 2 0 1 2 0 0 0 2 2 4 2 2 4 7 0 0 12 316 564 2236 2046 1441 1059 1350 1298 1253 1192 846 983 1211 745 927 537 598 1073 494 408 285 127 128 116 97 33
0 0 0 0 0 0 0 1 29 13 33 15 55 34 4 0 7 0 0 0 4 4 12 394 1040 1617 1955 1422 1201 1510 1096 1002 901 876 1143 1328 1266 1124 864 634 635 427 478 227 207 142 91 159 120
0 0 0 0 0 0 0 0 27 35 30 48 36 54 20 1 3 2 0 1 0 20 169 688 1044 2032 1745 1574 1172 1776 1592 1106 1030 1137 1672 1544 1456 1217 1175 881 936 463 664 441 705 285 478 344 498
0 0 0 0 1 0 8 8 19 7 5 15 11 11 23 10 4 11 6 0 44 46 149 742 1544 1813 2357 2623 1242 1479 1806 1327 1305 1551 1766 1399 1080 1129 1525 1376 1414 1401 1081 641 793 607 664 483 534
0 0 0 0 6 3 19 12 0 0 0 0 5 7 0 7 3 23 48 101 183 129 430 1311 2233 2081 2417 1859 2845 1804 2075 1640 1519 1440 1411 1402 1224 1535 1425 1632 1363 1104 983 815 750 589 569 534 423
0 0 0 0 0 0 0 0 0 0 0 0 1 7 19 12 7 0 0 172 428 360 1139 1501 2812 2609 2326 2597 2200 3628 2466 2186 1487 1391 1521 1244 1412 1580 1704 1484 1439 1203 1487 1069 807 653 614 426 325
0 0 0 0 0 0 35 4 0 0 0 1 0 1 10 15 9 4 5 236 566 974 1170 1994 476 2558 2728 2909 2513 2306 2361 1775 1624 1311 1348 1496 1807 1657 1732 1426 1253 1437 1370 1153 875 554 424 531 304
0 0 0 0 0 0 38 17 0 2 27 35 15 5 0 0 0 29 65 45 123 1146 1565 2219 1890 2601 2864 3086 2806 2476 2946 1634 1453 1386 1294 1470 1512 1510 1459 1237 1227 1577 1243 1041 673 655 551 509 183
0 0 0 0 0 0 21 33 0 0 15 3 26 12 0 0 0 38 166 161 379 1677 2775 2858 2651 3389 2914 2926 2783 2385 1992 1526 1311 1222 1289 1891 1538 1528 1645 1309 1563 1357 1097 876 647 698 557 409 213
0 0 0 0 0 0 35 11 0 0 4 4 21 0 0 0 101 132 37 292 737 937 1274 2945 3288 4004 2863 2694 2352 2107 1469 1215 1069 1283 1465 1446 1509 1366 1432 1379 1433 1144 1158 878 578 607 544 367 249
0 0 0 0 0 1 28 15 0 0 3 18 15 2 2 4 2 42 203 369 1394 1440 1628 2603 2798 2893 2862 2646 2240 1788 1290 839 849 1102 1487 1513 1321 1526 923 1312 1029 1209 1000 826 384 488 461 266 434
0 0 0 0 0 0 17 3 0 0 0 1 0 0 0 0 0 0 55 1006 1259 1471 1783 1866 2101 2843 2701 2659 2133 2483 1293 1824 1315 1665 1335 1418 1280 1118 1160 1114 1025 1041 843 808 507 448 442 397 631
0 0 0 0 0 0 1 0 0 0 0 0 0 0 0 0 0 0 125 1241 1247 1148 1283 1607 2172 2451 2448 2156 1688 1503 990 1093 1301 1099 1275 1315 1449 1018 1128 1034 874 1024 919 959 955 836 600 480 385
0 0 0 0 0 9 0 0 0 0 0 0 0 0 0 0 0 19 132 1247 1038 1121 1278 1607 2046 1995 1990 1728 1494 1617 1620 1514 1697 1294 1804 1554 1542 1078 974 889 1074 1066 1028 992 925 868 793 668 484
0 0 0 0 0 21 0 0 0 0 0 0 0 0 3 0 1 6 914 1012 1015 1031 1240 1645 1593 1702 1383 1755 2061 1640 1573 1675 1672 1252 1587 1418 1534 1393 1168 953 931 880 1007 986 932 848 746 728 605
0 7 0 0 0 0 0 0 0 0 0 0 0 0 0 4 20 971 986 932 925 1033 1286 1370 1343 1299 1322 1530 1413 1783 1725 1241 1325 1332 1344 1102 1227 1186 1169 1049 701 908 1077 1016 701 831 721 835 506
0 0 0 0 0 0 0 0 0 0 0 0 0 0 0 163 785 935 919 855 866 1085 1141 1072 1288 1215 1123 1131 1180 1702 1856 1282 1521 1392 1282 1021 959 1144 954 1024 778 958 963 985 1022 927 936 817 378
0 0 0 0 0 0 0 0 0 0 0 0 0 0 270 560 927 900 882 837 969 993 1100 1129 1108 1013 930 1008 1480 1633 1606 1412 1258 1446 1189 1088 1118 794 1013 790 826 781 782 800 706 670 774 853 546
1 0 0 3 1 6 0 2 9 18 19 1 0 26 649 927 829 791 772 968 908 1008 1173 1139 1011 857 898 808 1290 1221 629 1228 1174 657 965 848 747 402 929 889 939 713 639 764 567 734 641 843 566
0 0 0 1 0 0 0 0 469 184 11 12 29 2 800 832 755 749 793 903 937 893 893 1000 871 726 627 997 1202 1281 1201 1117 545 699 503 841 598 193 542 709 643 629 565 637 677 677 564 220 80
0 0 3 17 0 0 1 1 176 178 14 82 90 288 816 779 701 712 762 746 778 854 840 878 672 348 649 676 1031 1224 1267 1137 855 717 526 758 692 632 276 280 578 608 545 232 497 258 429 148 37

GFSSGP_con_sbcape_030.txt.gz
CAPE
0 0 0 0 0 0 0 0 0 0 0 0 0 0 0 0 0 0 0 2 59 51 384 966 1073 832 564 376 215 143 91 60 45 8 0 0 0 0 0 0 0 0 0 0 0 0 0 0 0
0 0 0 0 0 0 0 0 0 0 0 0 0 0 0 0 0 0 67 123 36 84 330 541 1106 836 625 461 283 191 121 84 66 41 1 0 0 0 0 0 0 0 0 0 0 0 0 0 0
0 0 0 0 0 0 0 0 0 2 0 0 0 0 0 0 0 0 56 144 48 80 299 442 1132 867 721 587 313 212 148 140 132 46 27 0 2 8 0 0 0 0 0 0 15 28 38 26 0
0 0 0 0 0 0 0 0 0 13 2 0 0 0 0 0 0 0 241 104 0 60 162 791 1108 921 803 726 471 277 229 245 220 106 64 50 39 79 69 26 22 34 68 118 156 199 247 226 210
0 0 0 0 0 0 0 0 0 6 15 0 0 0 0 0 0 329 256 98 6 9 19 595 1171 1029 935 879 615 409 369 350 422 417 268 217 275 208 113 126 142 129 176 277 386 387 607 519 494
0 0 0 0 0 0 0 0 0 3 17 8 0 0 0 0 3 357 305 149 20 3 0 333 1169 1164 1005 890 664 522 525 468 567 629 608 589 605 563 306 304 280 314 476 604 503 464 535 533 457
0 0 0 0 0 0 0 0 0 0 4 0 0 0 0 0 0 4 257 152 124 0 0 163 468 866 1359 1031 814 652 641 601 694 770 806 832 851 873 860 758 605 585 859 908 647 554 467 384 362
0 0 0 0 0 0 0 0 0 0 0 0 0 0 0 0 0 0 0 0 160 60 32 158 169 290 505 634 1113 878 771 802 775 940 992 988 1047 1033 1050 967 1141 939 1097 1060 707 538 318 312 292
0 0 0 0 0 0 0 0 0 0 0 0 0 0 0 0 0 0 0 0 0 133 194 243 278 144 257 377 690 1086 1072 1022 965 982 1099 917 661 685 747 977 1060 1153 1156 1220 861 568 483 261 142
0 0 0 0 0 0 0 0 0 0 0 0 0 0 0 0 0 0 0 0 0 163 424 322 332 301 190 285 395 647 467 535 574 515 551 630 482 356 656 655 1194 1463 1516 1449 1155 792 568 326 0
0 0 0 0 0 0 0 0 0 0 0 0 0 0 0 0 0 0 0 0 0 1 505 513 386 397 294 212 293 621 430 412 471 455 399 577 442 348 397 198 403 1224 1426 777 885 662 468 12 0
0 0 0 0 0 0 0 0 0 0 0 0 0 0 0 0 0 0 0 0 0 0 156 686 553 502 368 288 352 478 456 377 489 551 406 453 344 196 170 133 106 470 317 326 153 121 7 0 0
0 0 0 0 0 0 0 0 0 0 0 0 0 0 0 0 0 0 0 0 0 0 0 428 645 555 494 386 503 527 509 382 489 580 396 382 330 229 215 170 89 128 51 102 31 3 0 0 0
0 0 0 0 0 0 0 0 0 0 0 0 0 0 0 0 0 0 0 0 0 0 0 20 671 613 643 551 543 632 603 464 391 473 370 352 420 316 213 126 54 94 56 32 23 11 0 0 0
0 0 0 0 0 0 0 0 0 0 0 0 0 0 0 0 0 0 0 0 0 0 0 0 366 914 880 776 567 671 633 516 447 384 362 421 473 354 257 215 275 174 50 31 28 6 0 0 0
0 0 0 0 0 0 0 0 0 0 0 0 0 0 0 0 0 0 0 0 0 0 0 0 216 939 1057 889 531 762 727 603 528 464 542 679 540 300 266 252 241 188 61 33 15 1 0 0 0
0 0 0 0 0 0 0 0 0 0 0 0 0 0 0 0 0 0 0 0 0 0 0 0 246 478 793 867 547 748 815 700 503 433 725 676 534 394 393 294 201 146 148 106 55 30 0 0 0
0 0 0 0 0 0 0 0 0 0 0 0 0 0 0 0 0 0 0 0 0 0 0 0 391 563 726 608 705 647 416 303 160 305 482 417 462 477 353 292 258 121 179 143 74 77 0 20 14
0 0 0 0 0 0 0 0 0 0 0 0 0 0 0 0 0 0 0 0 0 0 0 1 591 834 1205 997 1128 878 512 185 80 146 366 345 305 288 206 205 209 115 212 168 13 9 32 7 18
0 0 0 0 0 0 0 0 0 0 0 0 0 0 0 0 0 0 0 0 0 12 183 101 687 1162 1396 1451 1127 757 313 121 89 64 225 305 247 321 275 322 213 155 151 43 0 1 14 11 2
0 0 0 0 0 0 0 0 0 0 0 0 0 0 0 0 0 0 0 0 0 45 466 745 1183 1261 1322 1065 638 218 93 65 28 18 21 171 247 271 250 152 68 50 32 98 0 0 0 0 0
0 0 0 0 0 0 0 0 0 0 0 0 0 0 0 0 0 0 0 0 8 227 708 1292 1193 1266 1172 1043 661 485 177 192 63 88 29 111 152 210 167 113 69 36 0 0 0 0 0 0 0
0 0 0 0 0 0 0 0 0 0 0 0 0 0 0 0 0 0 0 0 90 472 760 1159 1164 1293 886 680 437 219 128 24 0 24 56 130 61 134 131 0 7 2 0 0 7 32 0 0 0
0 0 0 0 0 0 0 0 0 0 0 0 0 0 0 0 0 0 0 160 311 491 867 943 930 633 489 340 138 13 38 2 24 44 51 6 10 56 61 1 0 0 0 4 2 3 7 2 0
0 0 0 0 0 0 0 0 0 0 0 0 0 0 0 0 0 159 220 340 550 841 901 645 538 437 257 26 0 1 9 0 31 24 0 34 41 12 0 0 0 0 0 13 37 27 21 15 18
0 0 0 0 0 0 0 0 0 0 0 0 0 0 0 0 16 142 207 433 743 826 735 478 294 359 61 71 2 0 0 0 8 1 0 1 0 0 0 0 0 0 28 68 77 36 22 25 33
0 0 0 0 0 0 0 0 0 0 0 0 0 0 29 103 122 100 303 619 652 480 425 209 175 80 4 66 0 3 10 15 2 0 0 0 0 0 0 0 0 2 29 82 44 30 33 18 7
0 0 0 0 0 0 0 0 0 0 0 0 0 1 155 127 112 214 405 472 370 253 222 99 87 0 9 33 16 7 3 12 0 0 0 0 0 1 0 0 0 0 8 42 57 55 46 19 0
0 0 0 0 0 0 0 0 0 0 0 0 0 29 117 134 103 275 350 295 232 265 173 71 48 1 39 44 21 45 30 16 0 0 0 0 0 0 0 0 5 0 4 5 12 50 37 2 9
0 0 0 0 0 0 0 0 0 0 0 0 0 134 105 78 143 262 267 246 308 284 160 74 13 6 31 40 7 2 7 0 0 0 0 0 0 0 0 1 16 0 0 0 0 18 12 2 17

GFSSGP_con_sbcape_033.txt.gz
CAPE
0 0 0 0 0 0 0 0 0 0 0 0 0 0 0 0 0 0 0 0 0 88 340 849 1187 894 600 479 339 243 163 88 35 0 0 0 0 0 0 0 0 0 0 0 0 0 0 0 0
0 0 0 0 0 0 0 0 0 0 0 0 0 0 0 0 0 0 0 12 11 151 354 509 1135 906 758 566 457 335 192 118 91 0 0 0 0 0 0 0 0 0 0 0 0 0 0 0 0
0 0 0 0 0 0 0 0 0 0 0 0 0 0 0 1 0 0 0 33 74 177 359 403 1210 965 904 722 486 322 253 228 151 12 10 5 0 5 8 0 0 0 0 0 0 0 2 37 41
0 0 0 0 0 0 0 0 0 0 0 0 0 0 0 0 0 0 117 31 50 95 270 493 1331 1144 1028 860 573 392 331 293 252 134 71 45 24 51 52 9 6 10 24 60 80 127 146 203 212
0 0 0 0 0 0 0 0 0 0 0 0 0 0 0 0 0 135 141 62 0 9 139 401 1479 1250 1152 1018 742 516 383 329 326 312 199 150 187 172 66 53 56 76 126 209 272 331 481 627 641
0 0 0 0 0 0 0 0 0 0 0 0 0 0 0 0 27 166 123 29 0 0 11 189 1487 1269 1168 1112 844 556 419 385 419 457 427 395 376 308 126 118 149 192 275 365 482 508 656 655 674
0 0 0 0 0 0 0 0 0 0 0 0 0 0 0 0 0 193 124 58 14 0 0 80 719 885 1371 1206 975 663 596 479 560 636 629 634 626 599 509 434 319 364 466 698 834 814 825 811 592
0 0 0 0 0 0 0 0 0 0 0 0 0 0 0 0 0 18 122 120 63 0 0 11 311 377 507 680 1219 923 800 738 681 795 817 834 877 892 868 824 840 550 774 998 1134 1011 755 681 602
0 0 0 0 0 0 0 0 0 0 0 0 0 0 0 0 0 0 0 0 32 58 1 8 110 161 214 230 525 1064 897 923 855 912 1001 810 560 659 617 774 801 772 1033 1193 1277 1085 939 565 357
0 0 0 0 0 0 0 0 0 0 0 0 0 0 0 0 0 0 0 0 0 82 116 139 112 92 115 159 189 463 371 395 493 472 526 578 397 353 566 627 853 882 1173 1430 1495 1328 803 542 80
0 0 0 0 0 0 0 0 0 0 0 0 0 0 0 0 0 0 0 0 0 0 103 226 216 135 21 72 134 292 336 307 384 357 289 393 334 332 609 414 567 759 1287 1128 1198 1005 613 319 18
0 0 0 0 0 0 0 0 0 0 0 0 0 0 0 0 0 0 0 0 0 0 6 234 244 211 76 21 124 139 277 255 306 334 223 320 252 145 195 173 97 258 681 930 564 445 299 133 22
0 0 0 0 0 0 0 0 0 0 0 0 0 0 0 0 0 0 0 0 0 0 0 141 307 252 236 129 120 162 338 253 218 306 296 280 238 137 87 74 73 102 197 331 206 103 60 21 3
0 0 0 0 0 0 0 0 0 0 0 0 0 0 0 0 0 0 0 0 0 0 0 0 306 298 273 289 257 257 321 302 223 324 352 232 181 54 63 79 74 78 56 86 103 48 22 14 3
0 0 0 0 0 0 0 0 0 0 0 0 0 0 0 0 0 0 0 0 0 0 0 0 64 283 321 369 363 395 398 357 274 332 325 266 193 38 65 44 60 41 47 50 18 16 8 0 0
0 0 0 0 0 0 0 0 0 0 0 0 0 0 0 0 0 0 0 0 0 0 0 0 0 341 374 436 442 492 556 503 377 314 293 283 278 140 102 151 113 103 49 19 7 7 5 0 0
0 0 0 0 0 0 0 0 0 0 0 0 0 0 0 0 0 0 0 0 0 0 0 0 0 416 525 547 513 534 594 532 427 288 313 337 368 227 185 106 119 71 38 2 3 1 0 0 0
0 0 0 0 0 0 0 0 0 0 0 0 0 0 0 0 0 0 0 0 0 0 0 0 0 90 613 513 267 389 474 384 269 426 499 535 460 366 232 138 138 56 35 40 0 13 0 0 0
0 0 0 0 0 0 0 0 0 0 0 0 0 0 0 0 0 0 0 0 0 0 0 0 0 29 285 430 479 438 656 258 231 403 492 439 426 400 166 200 111 7 88 90 4 0 10 1 0
0 0 0 0 0 0 0 0 0 0 0 0 0 0 0 0 0 0 0 0 0 0 0 0 0 145 423 603 710 432 220 68 196 300 482 464 418 363 202 119 44 13 21 18 0 1 0 0 1
0 0 0 0 0 0 0 0 0 0 0 0 0 0 0 0 0 0 0 0 0 0 0 0 3 366 607 351 60 17 8 1 32 121 306 271 300 273 168 70 62 0 0 0 0 0 1 0 1
0 0 0 0 0 0 0 0 0 0 0 0 0 0 0 0 0 0 0 0 0 0 4 192 487 631 526 469 244 258 240 206 3 9 8 45 115 135 113 153 1 1 0 0 0 0 0 0 0
0 0 0 0 0 0 0 0 0 0 0 0 0 0 0 0 0 0 0 0 0 4 394 629 699 761 548 371 226 53 32 0 0 0 0 0 0 50 55 16 6 0 0 0 0 0 0 0 0
0 0 0 0 0 0 0 0 0 0 0 0 0 0 0 0 0 0 0 0 0 190 672 731 733 473 322 162 39 70 10 0 0 0 0 0 0 0 18 2 0 0 0 0 0 0 0 0 0
0 0 0 0 0 0 0 0 0 0 0 0 0 0 0 0 0 0 0 9 197 616 561 547 507 278 134 17 1 3 0 0 2 0 0 0 0 0 0 0 0 0 0 0 0 0 0 0 0
0 0 0 0 0 0 0 0 0 0 0 0 0 0 0 0 0 0 1 148 434 497 404 348 248 1 0 0 0 0 0 0 0 0 0 0 0 0 0 0 0 0 0 0 0 5 9 4 1
0 0 0 0 0 0 0 0 0 0 0 0 0 0 0 0 0 27 191 362 385 225 40 130 18 0 0 0 0 0 0 0 0 0 0 0 0 0 0 0 0 0 0 0 8 36 57 28 13
0 0 0 0 0 0 0 0 0 0 0 0 0 0 0 1 73 211 350 270 156 40 0 3 0 0 0 0 0 0 0 0 0 0 0 0 0 0 0 0 0 0 0 0 0 14 28 9 0
0 0 0 0 0 0 0 0 0 0 0 0 0 0 0 25 133 235 236 108 62 0 0 0 0 0 0 0 0 0 0 0 0 0 0 0 0 0 0 0 0 0 0 0 0 3 3 4 1
0 0 0 0 0 0 0 0 0 0 0 0 0 0 0 7 139 170 119 108 109 2 0 0 0 0 0 0 0 0 0 0 0 0 0 0 0 0 0 0 0 3 0 0 0 9 0 0 2